GW1174 Weather Reports


Display with metric or nautical units.
time (UTC)temp
F
wind
direction
speed
MPH
gust
MPH
rain 1hr
in
rain 24hr
in
rain mn
in
humidity
%
barometer
mb
20260902031017 46 16 10.0 11.0 0.00 0.20 0.20 23 1052.0
20260902030017 48 0.0 0.0 0.00 0.00 0.00 92 1021.2
20260902025017 48 20 9.0 11.0 0.00 0.20 0.20 23 1052.7
20260902024017 49 22 9.0 11.0 0.00 0.20 0.20 24 1053.1
20260902023037 50 24 9.0 11.0 0.00 0.20 0.20 24 1053.5
20260902022037 51 26 9.0 11.0 0.00 0.20 0.20 24 1053.9
20260902021016 50 0.0 1.0 0.00 0.00 0.00 92 1021.2
20260902020017 52 30 9.0 11.0 0.00 0.20 0.20 25 1054.7
20260902015017 53 32 9.0 11.0 0.01 0.20 0.20 25 1055.1
20260902014040 50 0.0 0.0 0.00 0.00 0.00 91 1021.4
20260902014037 54 34 9.0 11.0 0.02 0.20 0.20 26 1055.6
20260902013017 55 37 9.0 11.0 0.03 0.20 0.20 26 1056.0
20260902012057 56 39 9.0 11.0 0.04 0.20 0.20 27 1056.5
20260902011017 57 42 9.0 11.0 0.05 0.20 0.20 27 1057.0
20260902011015 50 0.0 0.0 0.00 0.00 0.00 91 1021.6
20260902010017 57 44 9.0 11.0 0.06 0.20 0.20 27 1057.5
20260902005016 51 0.0 1.0 0.00 0.00 0.00 91 1021.8
20260902004018 51 0.0 0.0 0.00 0.00 0.00 91 1021.7
20260902003020 51 0.0 1.0 0.00 0.00 0.00 91 1021.5
20260902003017 60 52 9.0 10.0 0.07 0.20 0.17 29 1059.1
20260902002018 51 0.0 0.0 0.00 0.00 0.00 91 1021.5
20260902001018 52 0.0 0.0 0.00 0.00 0.00 90 1021.6
20260902000017 52 0.0 0.0 0.00 0.00 0.00 90 1021.5
20260901235018 52 0.0 0.0 0.00 0.00 0.00 90 1021.6
20260901234018 52 0.0 0.0 0.00 0.00 0.00 90 1021.6
20260901233017 64 70 8.0 10.0 0.06 0.20 0.10 32 1062.6
20260901232018 52 0.0 0.0 0.00 0.00 0.00 90 1021.4
20260901231018 52 0.0 0.0 0.00 0.00 0.00 89 1021.5
20260901230017 66 79 8.0 9.0 0.07 0.20 0.07 33 1064.5
20260901225037 66 83 8.0 9.0 0.06 0.20 0.06 34 1065.1
20260901225017 52 0.0 0.0 0.00 0.01 0.00 89 1021.6
20260901224019 53 0.0 0.0 0.00 0.01 0.00 89 1021.5
20260901223057 53 0.0 0.0 0.00 0.01 0.00 88 1021.4
20260901222037 68 93 7.0 9.0 0.03 0.20 0.03 35 1067.1
20260901221017 68 96 7.0 9.0 0.02 0.20 0.02 36 1067.8
20260901220018 54 0.0 0.0 0.00 0.01 0.01 87 1021.4
20260901215037 69 103 7.0 9.0 0.00 0.20 0.20 37 1069.2
20260901214037 69 107 7.0 8.0 0.00 0.20 0.20 38 1069.9
20260901213017 69 110 7.0 8.0 0.00 0.20 0.20 38 1070.6
20260901212137 69 114 7.0 8.0 0.00 0.20 0.20 39 1071.3
20260901211017 70 118 7.0 8.0 0.00 0.20 0.20 40 1072.0
20260901210057 70 121 7.0 8.0 0.00 0.20 0.20 40 1072.8
20260901205017 70 125 7.0 8.0 0.00 0.20 0.20 41 1073.5
20260901204017 70 129 6.0 8.0 0.00 0.20 0.20 41 1074.3
20260901203017 56 0.0 0.0 0.00 0.02 0.01 84 1021.1
20260901202017 70 136 6.0 7.0 0.00 0.20 0.20 43 1075.8
20260901201017 70 140 6.0 7.0 0.00 0.20 0.20 43 1076.5
20260901200017 70 144 6.0 7.0 0.00 0.20 0.20 44 1077.3
20260901195017 70 148 6.0 7.0 0.00 0.20 0.20 45 1078.0
20260901194039 59 0.0 0.0 0.00 0.02 0.01 79 1021.0
20260901193017 69 156 6.0 7.0 0.00 0.20 0.20 46 1079.6
20260901192017 69 159 6.0 7.0 0.00 0.20 0.20 47 1080.3
20260901191017 69 163 5.0 7.0 0.00 0.20 0.20 47 1081.1
20260901190017 69 167 5.0 6.0 0.00 0.20 0.20 48 1081.9
20260901185017 68 171 5.0 6.0 0.00 0.20 0.20 49 1082.7
20260901184017 68 175 5.0 6.0 0.00 0.20 0.20 49 1083.4
20260901183017 67 179 5.0 6.0 0.00 0.20 0.20 50 1084.2
20260901182017 67 183 5.0 6.0 0.00 0.20 0.20 51 1085.0
20260901181017 66 187 5.0 6.0 0.00 0.20 0.20 51 1085.8
20260901180017 66 191 5.0 6.0 0.00 0.20 0.20 52 1086.5
20260901175017 65 195 5.0 6.0 0.00 0.20 0.20 52 1087.3
20260901174018 65 199 4.0 5.0 0.00 0.20 0.20 53 1088.1
20260901173058 64 203 4.0 5.0 0.00 0.20 0.20 54 1088.9
20260901173056 69 270 1.0 3.0 0.00 0.02 0.01 61 1020.1
20260901172016 69 225 2.0 4.0 0.00 0.02 0.01 59 1020.0
20260901171017 63 210 4.0 5.0 0.00 0.20 0.20 55 1090.4
20260901170038 69 203 3.0 6.0 0.00 0.02 0.01 59 1020.2
20260901165038 70 225 4.0 8.0 0.00 0.02 0.01 57 1020.2
20260901164018 70 225 4.0 9.0 0.00 0.02 0.01 57 1020.4
20260901163018 70 248 4.0 9.0 0.00 0.02 0.01 55 1020.4
20260901162018 71 270 6.0 12.0 0.00 0.02 0.01 55 1020.4
20260901161017 72 225 6.0 10.0 0.00 0.02 0.01 53 1020.6
20260901160018 73 248 4.0 8.0 0.00 0.02 0.01 54 1020.6
20260901155017 72 293 2.0 6.0 0.00 0.02 0.01 57 1020.5
20260901154038 71 293 1.0 6.0 0.00 0.02 0.01 59 1020.6
20260901153018 71 225 2.0 4.0 0.00 0.02 0.01 58 1020.6
20260901152018 70 293 2.0 8.0 0.00 0.02 0.01 58 1020.6
20260901151057 71 293 3.0 8.0 0.00 0.02 0.01 58 1020.6
20260901150017 72 338 3.0 9.0 0.00 0.02 0.01 56 1020.6
20260901145017 73 225 3.0 6.0 0.00 0.02 0.01 54 1020.8
20260901144017 72 270 4.0 8.0 0.00 0.02 0.01 55 1020.8
20260901143017 73 270 4.0 8.0 0.00 0.02 0.01 55 1020.9
20260901142017 72 293 5.0 10.0 0.00 0.02 0.01 57 1020.7
20260901141019 72 225 3.0 7.0 0.00 0.02 0.01 55 1020.8
20260901141017 48 276 2.0 3.0 0.00 0.20 0.20 66 1103.4
20260901140017 74 293 4.0 9.0 0.00 0.02 0.01 55 1021.0
20260901135017 47 282 2.0 3.0 0.00 0.20 0.20 67 1104.7
20260901134017 70 315 1.0 5.0 0.00 0.02 0.01 61 1020.9
20260901133017 70 315 1.0 5.0 0.00 0.02 0.01 60 1020.9
20260901132022 71 338 2.0 9.0 0.00 0.02 0.01 59 1020.9
20260901132017 44 292 2.0 2.0 0.00 0.20 0.20 69 1106.5
20260901131037 43 295 2.0 2.0 0.00 0.20 0.20 69 1107.1
20260901130017 43 298 2.0 2.0 0.00 0.20 0.20 70 1107.7
20260901125017 73 293 4.0 10.0 0.00 0.02 0.01 59 1021.4
20260901124037 41 304 2.0 2.0 0.00 0.20 0.20 71 1108.9
20260901123017 40 307 1.0 2.0 0.00 0.20 0.20 71 1109.4
20260901122017 69 293 5.0 12.0 0.00 0.02 0.01 63 1021.2
20260901121038 39 312 1.0 2.0 0.00 0.20 0.20 72 1110.5
20260901121018 70 338 2.0 10.0 0.00 0.02 0.01 62 1021.2
20260901120037 38 315 1.0 2.0 0.00 0.20 0.20 72 1111.0
20260901115017 37 317 1.0 1.0 0.00 0.20 0.20 73 1111.5
20260901114017 37 320 1.0 1.0 0.00 0.20 0.20 73 1112.0
20260901113017 70 248 5.0 10.0 0.00 0.02 0.01 63 1021.3
20260901112057 67 293 5.0 11.0 0.00 0.02 0.01 66 1021.3
20260901112017 35 325 1.0 1.0 0.00 0.20 0.20 74 1113.0
20260901111017 68 315 6.0 13.0 0.00 0.02 0.01 66 1021.4
20260901110037 69 293 5.0 12.0 0.00 0.02 0.01 66 1021.4
20260901105017 68 270 5.0 14.0 0.00 0.02 0.01 66 1021.3
20260901104017 33 333 1.0 1.0 0.00 0.20 0.20 76 1114.7
20260901103017 66 293 5.0 12.0 0.00 0.02 0.01 69 1021.2
20260901102017 32 337 1.0 1.0 0.00 0.20 0.20 76 1115.5
20260901101017 32 339 1.0 1.0 0.00 0.20 0.20 77 1115.9
20260901100017 32 341 1.0 1.0 0.00 0.20 0.20 77 1116.2
20260901095017 64 293 4.0 9.0 0.00 0.02 0.01 74 1021.3
20260901094017 31 344 0.0 1.0 0.00 0.20 0.20 77 1116.9
20260901093017 65 270 4.0 9.0 0.00 0.02 0.01 74 1021.5
20260901092037 64 293 3.0 9.0 0.00 0.02 0.01 74 1021.5
20260901091017 30 349 0.0 0.0 0.00 0.20 0.20 78 1117.8
20260901090017 30 350 0.0 0.0 0.00 0.20 0.20 78 1118.0
20260901085037 64 270 3.0 8.0 0.00 0.02 0.01 78 1021.4
20260901084017 63 293 3.0 8.0 0.00 0.02 0.01 78 1021.2
20260901083017 63 270 4.0 8.0 0.00 0.02 0.01 79 1021.3
20260901082016 30 355 0.0 0.0 0.00 0.20 0.20 79 1118.9
20260901081037 64 293 2.0 8.0 0.00 0.02 0.01 80 1021.2
20260901080017 30 356 0.0 0.0 0.00 0.20 0.20 79 1119.3
20260901075017 30 357 0.0 0.0 0.00 0.20 0.20 80 1119.4
20260901074017 30 358 0.0 0.0 0.00 0.20 0.20 80 1119.5
20260901073017 31 358 0.0 0.0 0.00 0.20 0.20 80 1119.7
20260901072037 62 293 1.0 3.0 0.00 0.02 0.01 86 1021.0
20260901071017 31 359 0.0 0.0 0.00 0.20 0.20 80 1119.8
20260901070017 31 360 0.0 0.0 0.00 0.20 0.20 80 1119.9
20260901065017 32 360 0.0 0.0 0.00 0.20 0.20 80 1119.9
20260901064037 32 360 0.0 0.0 0.00 0.20 0.20 80 1120.0
20260901063017 33 360 0.0 0.0 0.00 0.20 0.20 80 1120.0
20260901062036 58 0.0 1.0 0.00 0.02 0.01 91 1020.8
20260901061517 61 305 2.0 2.0 0.00 0.20 0.20 71 1109.1
20260901061016 58 293 1.0 4.0 0.00 0.02 0.01 92 1020.9
20260901060517 61 302 2.0 2.0 0.00 0.20 0.20 70 1108.5
20260901060016 58 293 1.0 2.0 0.00 0.02 0.01 92 1020.7
20260901055537 62 299 2.0 2.0 0.00 0.20 0.20 70 1107.9
20260901055036 57 293 1.0 3.0 0.00 0.02 0.01 92 1020.8
20260901054517 63 296 2.0 2.0 0.00 0.20 0.20 69 1107.3
20260901054037 57 293 1.0 4.0 0.00 0.02 0.01 92 1020.7
20260901053517 63 293 2.0 2.0 0.00 0.20 0.20 69 1106.7
20260901053016 57 293 1.0 3.0 0.00 0.02 0.01 92 1020.7
20260901052517 64 290 2.0 2.0 0.00 0.20 0.20 68 1106.1
20260901052016 57 0.0 3.0 0.00 0.02 0.01 91 1020.5
20260901051518 65 287 2.0 2.0 0.00 0.20 0.20 68 1105.5
20260901051016 56 0.0 3.0 0.00 0.02 0.01 91 1020.7
20260901050517 65 284 2.0 3.0 0.00 0.20 0.20 67 1104.9
20260901050016 56 270 1.0 4.0 0.00 0.02 0.01 91 1020.5
20260901045517 66 280 2.0 3.0 0.00 0.20 0.20 67 1104.2
20260901045038 56 225 3.0 5.0 0.00 0.02 0.01 91 1020.5
20260901044517 66 277 2.0 3.0 0.00 0.20 0.20 66 1103.6
20260901044016 57 225 4.0 8.0 0.00 0.02 0.01 91 1020.5
20260901043537 67 274 2.0 3.0 0.00 0.20 0.20 66 1102.9
20260901043016 57 203 5.0 10.0 0.00 0.02 0.01 91 1020.4
20260901042557 67 270 2.0 3.0 0.00 0.20 0.20 65 1102.3
20260901042017 57 203 4.0 7.0 0.00 0.02 0.01 91 1020.4
20260901041517 68 267 3.0 3.0 0.00 0.20 0.20 64 1101.6
20260901041016 57 225 3.0 5.0 0.00 0.02 0.01 91 1020.4
20260901040517 68 263 3.0 3.0 0.00 0.20 0.20 64 1100.9
20260901040016 57 203 3.0 5.0 0.00 0.04 0.01 91 1020.4
20260901035517 68 260 3.0 3.0 0.00 0.20 0.20 63 1100.2
20260901035016 57 225 3.0 6.0 0.00 0.07 0.01 91 1020.4
20260901034517 69 256 3.0 3.0 0.00 0.20 0.20 63 1099.5
20260901034016 57 203 3.0 5.0 0.00 0.08 0.01 91 1020.3
20260901033517 69 253 3.0 4.0 0.00 0.20 0.20 62 1098.8
20260901033016 57 180 3.0 7.0 0.00 0.24 0.01 91 1020.3
20260901032517 69 249 3.0 4.0 0.00 0.20 0.20 62 1098.1
20260901032056 57 203 3.0 5.0 0.00 0.24 0.01 91 1020.2